Weather History for Branson, MO

Change the Weather History Date:

Friday, September 20, 2013

  Actual Average (KHRO) Record (KHRO)
Temperature  
Mean Temperature 66 °F 67 °F  
Max Temperature 75 °F 79 °F 101 °F (1954)
Min Temperature 57 °F 56 °F 31 °F (1918)
Degree Days  
Heating Degree Days 0 2  
Month to date heating degree days 13  
Since 1 July heating degree days 14  
Cooling Degree Days 1 4  
Month to date cooling degree days 136  
Year to date cooling degree days 1347  
Growing Degree Days 16 (Base 50)    
Moisture  
Dew Point 63 °F    
Average Humidity 92    
Maximum Humidity 100    
Minimum Humidity 68    
Precipitation  
Precipitation 1.18 in 0.14 in 1.62 in (1974)
Month to date precipitation 2.82  
Year to date precipitation 31.78  
Snow  
Snow 0.00 in 0.00 in - ()
Month to date snowfall 0.0  
Since 1 July snowfall 0.0  
Since 1 September snowfall 0.0  
Snow Depth -    
Sea Level Pressure  
Sea Level Pressure 29.98 in    
Wind  
Wind Speed 5 mph (WNW)    
Max Wind Speed 13 mph    
Max Gust Speed 25 mph    
Visibility 8 miles    
Events Rain , Thunderstorm    
T = Trace of Precipitation, MM = Missing Value Source: NWS Daily Summary

Daily Weather History Graph

Daily Weather History Graph

Search for Another Location

Airport:

Trip Planner

Search our weather history database for the weather conditions in past years. The results will help you decide how hot, cold, wet, or windy it might be!

Date:

Astronomy

Sep. 20, 2013 Rise Set
Actual Time 6:59 AM CDT 7:12 PM CDT
Civil Twilight 6:33 AM CDT 7:38 PM CDT
Nautical Twilight 6:03 AM CDT 8:08 PM CDT
Astronomical Twilight 5:32 AM CDT 8:38 PM CDT
Moon 7:50 PM CDT (9/20) 8:11 AM CDT (9/20)
Length of Visible Light 13h 04m
Length of Day
12h 12m
Full, 98% of the Moon is Illuminated
Sep 20
Full
Sep 26
Last Quarter
Oct 4
New
Oct 11
First Quarter
Oct 18
Full

Hourly Weather History & Observations

Time (CDT) Temp. Dew Point Humidity Pressure Visibility Wind Dir Wind Speed Gust Speed Precip Events Conditions
12:15 AM 73.4 °F 68.0 °F 83% 29.96 in 10.0 mi SSE 5.8 mph - N/A   Clear
12:35 AM 73.4 °F 68.0 °F 83% 29.96 in 10.0 mi SSE 6.9 mph - N/A   Clear
12:55 AM 73.4 °F 68.0 °F 83% 29.95 in 10.0 mi SSE 4.6 mph - N/A   Mostly Cloudy
1:15 AM 75.2 °F 66.2 °F 73% 29.96 in 10.0 mi SW 4.6 mph - N/A   Overcast
1:35 AM 73.4 °F 66.2 °F 78% 29.99 in 10.0 mi WNW 12.7 mph 25.3 mph N/A   Mostly Cloudy
1:55 AM 68.0 °F 68.0 °F 100% 30.02 in 2.0 mi West 9.2 mph 25.3 mph 0.82 in Rain , Thunderstorm Heavy Rain
2:15 AM 68.0 °F 66.2 °F 94% 30.02 in 4.0 mi WNW 6.9 mph 19.6 mph 0.10 in Rain Rain
2:35 AM 68.0 °F 66.2 °F 94% 29.99 in 10.0 mi West 4.6 mph - 0.12 in Rain Light Rain
2:55 AM 68.0 °F 66.2 °F 94% 30.00 in 10.0 mi Calm Calm - 0.13 in Rain Light Rain
3:15 AM 66.2 °F 66.2 °F 100% 29.99 in 7.0 mi Calm Calm - 0.02 in Rain Light Rain
3:35 AM 66.2 °F 66.2 °F 100% 29.98 in 5.0 mi Calm Calm - 0.07 in Rain Light Rain
3:55 AM 66.2 °F 66.2 °F 100% 29.98 in 8.0 mi Calm Calm - 0.09 in Rain Light Rain
4:15 AM 66.2 °F 66.2 °F 100% 29.99 in 3.0 mi SSW 6.9 mph - 0.03 in Rain Light Rain
4:35 AM 66.2 °F 66.2 °F 100% 29.99 in 10.0 mi South 4.6 mph - 0.04 in Rain Light Rain
4:55 AM 66.2 °F 64.4 °F 94% 30.00 in 9.0 mi SW 3.5 mph - 0.05 in Rain Light Rain
5:15 AM 66.2 °F 64.4 °F 94% 30.00 in 5.0 mi Calm Calm - 0.01 in Rain Light Rain
5:35 AM 66.2 °F 66.2 °F 100% 29.99 in 4.0 mi Calm Calm - 0.06 in Rain Rain
5:55 AM 66.2 °F 66.2 °F 100% 29.98 in 10.0 mi Calm Calm - 0.09 in Rain Light Rain
6:15 AM 66.2 °F 66.2 °F 100% 29.98 in 10.0 mi Calm Calm - N/A Rain Light Rain
6:35 AM 66.2 °F 66.2 °F 100% 29.98 in 10.0 mi Calm Calm - N/A Rain Light Rain
6:45 AM 66.2 °F 66.2 °F 100% 29.98 in 5.0 mi WNW 5.8 mph - N/A Rain Light Rain
7:47 AM 66.2 °F 66.2 °F 100% 29.99 in 5.0 mi WNW 4.6 mph - N/A Rain Light Rain
8:55 AM 66.2 °F 66.2 °F 100% 29.97 in 3.0 mi NNE 4.6 mph - N/A Rain Overcast
9:45 AM 66.2 °F 66.2 °F 100% 29.99 in 2.0 mi NW 6.9 mph - N/A Rain Light Rain
10:45 AM 66.2 °F 66.2 °F 100% 30.00 in 3.0 mi NW 6.9 mph - N/A Rain Light Rain
11:50 AM 68.0 °F 68.0 °F 100% 30.00 in 5.0 mi NNW 6.9 mph - N/A   Overcast
12:55 PM 68.0 °F 68.0 °F 100% 29.99 in 10.0 mi NW 8.1 mph - N/A   Overcast
1:45 PM 66.2 °F 66.2 °F 100% 29.99 in 8.0 mi NNW 8.1 mph - N/A   Overcast
2:45 PM 66.2 °F 64.4 °F 94% 29.97 in 10.0 mi NNW 8.1 mph - N/A   Overcast
3:45 PM 66.2 °F 60.8 °F 83% 29.96 in 10.0 mi NNW 10.4 mph - N/A   Overcast
4:55 PM 66.2 °F 57.2 °F 73% 29.96 in 10.0 mi North 5.8 mph - N/A   Overcast
5:50 PM 66.2 °F 55.4 °F 68% 29.95 in 10.0 mi North 9.2 mph - N/A   Overcast
7:50 PM 62.6 °F 55.4 °F 77% 29.97 in 10.0 mi Calm Calm - N/A   Overcast
8:45 PM 60.8 °F 57.2 °F 88% 29.97 in 10.0 mi Calm Calm - N/A   Scattered Clouds
9:15 PM 59.0 °F 57.2 °F 94% 29.97 in 10.0 mi Calm Calm - N/A   Clear
9:35 PM 59.0 °F 55.4 °F 88% 29.97 in 10.0 mi Calm Calm - N/A   Clear
9:55 PM 59.0 °F 55.4 °F 88% 29.97 in 10.0 mi Calm Calm - N/A   Clear
10:15 PM 59.0 °F 55.4 °F 88% 29.98 in 10.0 mi Calm Calm - N/A   Clear
10:35 PM 59.0 °F 55.4 °F 88% 29.99 in 10.0 mi NW 3.5 mph - N/A   Clear
10:55 PM 59.0 °F 55.4 °F 88% 29.99 in 10.0 mi NW 4.6 mph - N/A   Clear
11:15 PM 59.0 °F 55.4 °F 88% 29.99 in 10.0 mi NW 8.1 mph - N/A   Clear
11:35 PM 57.2 °F 53.6 °F 88% 29.99 in 10.0 mi Calm Calm - N/A   Clear
11:55 PM 57.2 °F 53.6 °F 88% 29.98 in 10.0 mi Calm Calm - N/A   Clear